RH
23 22 22 22 22 22 22 23 23 23 23 24 25 25 27 29 30 31 32 32 32 32 31 31 30 30 29 29 29 29 29 28 26 22 20 19 18 16 11 8 6 7 7 8 9 8 8 7 8 7 6 5 3 4 11 25 38 49 56 57 55 54 56 57 57 56 56 54 55 58 58 53 39 23 13 11 9 7 6 6 8 15 48 52 27
24 23 22 22 22 21 21 21 22 22 22 23 24 25 26 28 29 31 31 32 32 31 31 30 30 29 28 28 28 28 29 30 29 25 21 20 19 19 16 11 7 6 7 7 7 6 6 6 6 5 4 4 4 4 7 14 26 42 49 50 52 52 53 56 56 53 50 47 54 55 49 40 21 10 6 6 6 6 6 8 8 13 37 35 15
25 23 22 22 23 22 21 20 21 21 21 22 23 25 25 27 29 30 31 31 31 31 30 30 29 28 27 27 27 27 28 30 29 27 23 22 21 20 19 17 12 8 7 7 7 8 8 8 7 7 6 5 6 6 6 9 16 27 34 37 39 43 44 46 47 46 45 39 41 37 26 18 8 6 5 5 6 7 8 7 9 12 21 17 8
26 24 22 22 23 23 22 20 19 19 20 20 22 24 25 26 28 29 30 30 31 30 30 29 28 27 27 26 26 26 27 29 29 28 26 24 23 20 20 20 18 14 9 7 6 7 7 8 9 8 8 8 8 8 9 10 13 19 23 26 27 29 31 32 35 33 30 23 18 14 9 7 5 6 6 7 7 7 8 7 8 9 10 10 10
29 25 24 23 24 24 23 22 20 18 18 19 21 22 24 25 27 28 29 30 30 29 29 29 28 27 26 26 25 25 26 28 29 28 27 26 25 22 20 20 20 19 15 11 8 6 7 7 8 8 8 8 9 9 10 12 16 20 22 22 20 16 16 17 17 14 11 9 7 7 7 6 6 7 7 7 7 7 8 8 9 9 11 13 14
31 26 26 26 25 25 24 24 22 19 17 18 19 21 23 24 25 27 28 29 29 29 29 28 28 27 26 25 24 24 25 27 28 27 26 27 26 24 22 21 21 21 20 17 13 9 7 7 7 7 7 8 8 9 10 12 14 17 18 14 10 8 8 8 8 7 7 7 7 8 8 8 7 7 8 8 8 9 9 10 11 12 13 15 17
32 28 28 28 27 26 25 26 24 20 17 17 18 19 21 23 24 25 26 27 28 28 28 28 27 26 26 24 24 24 25 26 27 26 26 27 27 26 24 23 22 21 21 20 19 15 11 8 8 7 7 8 8 9 9 10 11 12 12 10 8 7 8 7 8 8 8 8 8 8 8 8 8 8 9 10 11 12 12 13 14 15 16 17 19
31 31 30 30 29 27 26 26 24 21 18 17 17 18 19 21 23 23 25 26 27 27 27 27 26 26 25 24 24 23 24 26 27 25 24 26 27 27 26 25 24 22 22 21 21 19 16 12 9 9 9 9 9 9 8 7 7 7 7 7 7 7 7 7 8 7 8 8 8 9 9 10 10 11 12 13 13 14 15 16 17 17 18 19 21
32 32 32 32 31 28 27 26 24 21 19 19 18 17 18 20 21 22 23 24 25 25 26 26 26 25 25 24 23 23 24 26 27 25 23 24 26 27 26 26 25 23 23 22 22 21 20 17 13 11 11 11 11 10 9 8 7 7 7 8 8 8 9 9 10 10 10 11 11 12 12 13 13 14 14 15 16 17 18 18 19 19 20 22 23
33 33 33 34 32 31 29 27 24 22 22 21 19 17 17 19 20 21 22 23 23 24 25 25 25 24 24 23 22 23 24 26 27 25 23 23 24 26 26 25 25 24 24 23 23 23 22 21 19 16 14 14 14 13 12 11 11 11 11 11 12 12 12 13 13 13 14 14 15 15 15 16 16 17 17 17 18 18 19 20 21 21 22 23 24
30 31 32 34 34 33 33 30 27 25 25 23 20 18 17 18 19 20 21 21 22 22 23 24 24 23 23 22 22 23 23 25 27 26 22 22 23 25 26 25 25 25 24 24 24 24 24 23 23 21 18 17 17 16 15 15 15 15 15 15 15 15 15 16 16 17 17 18 18 19 19 19 19 19 19 19 20 20 21 21 22 23 24 24 25
27 29 30 32 35 36 36 34 32 29 28 25 21 18 17 17 18 19 20 20 21 21 22 22 23 22 22 22 22 22 24 25 26 27 23 21 22 24 26 26 24 25 24 24 24 24 25 24 24 24 23 21 21 21 19 18 17 17 17 17 18 17 18 18 19 20 20 20 21 21 21 22 22 21 22 21 21 22 22 23 23 24 25 25 26
25 27 28 32 36 38 40 38 37 34 32 28 22 20 18 17 18 18 19 19 20 20 21 21 21 21 21 22 22 22 24 24 26 28 24 21 22 23 25 26 24 24 24 24 24 24 25 25 25 26 26 25 25 24 22 21 20 20 20 20 20 20 20 20 21 21 22 22 22 23 23 23 23 23 24 23 23 24 23 24 25 25 25 26 26
21 26 30 35 37 40 44 42 41 39 36 31 25 21 19 17 17 18 18 19 19 19 20 20 21 21 21 21 22 22 23 24 25 28 25 22 22 22 23 25 25 23 24 24 24 24 24 25 25 26 26 27 28 27 26 25 24 22 22 22 22 22 22 22 22 23 23 23 23 23 24 24 24 25 25 25 25 24 25 25 25 25 26 26 26
18 27 32 36 38 42 44 43 44 43 39 34 29 23 19 17 17 17 18 18 18 19 19 20 20 21 21 21 22 22 22 23 24 27 26 24 23 23 22 24 25 23 23 24 24 24 24 24 25 25 26 27 28 29 29 28 27 26 25 24 24 24 24 24 24 24 24 24 24 24 24 25 24 25 25 25 25 25 25 25 25 26 26 26 26
17 26 34 36 38 41 42 44 46 46 43 38 31 23 19 18 17 18 18 18 18 19 19 20 20 21 22 22 22 22 22 22 23 26 27 25 25 24 22 22 24 24 23 23 24 24 24 24 24 25 25 26 27 28 29 29 28 28 27 26 26 26 25 25 25 24 25 24 24 24 24 25 25 25 25 25 25 25 25 25 26 26 26 26 26
18 25 34 38 38 41 43 45 48 48 46 41 32 24 19 18 18 18 18 18 19 19 20 20 21 22 22 22 23 22 22 22 22 24 26 27 26 25 23 21 23 24 24 22 23 23 24 24 24 24 25 25 25 26 27 28 28 28 27 27 27 28 28 29 28 27 27 27 27 28 29 30 29 27 26 26 25 25 25 25 25 26 26 26 26
21 24 31 38 42 45 46 46 50 51 48 42 31 23 20 19 19 19 19 19 20 20 21 21 22 22 23 23 23 23 22 22 22 22 25 28 27 26 23 21 21 23 24 24 23 23 23 23 24 24 25 25 25 25 26 26 26 27 27 27 28 28 30 31 31 31 31 33 33 33 34 34 32 31 29 30 29 28 27 26 26 26 26 26 27
24 26 30 37 42 46 48 50 54 55 51 42 31 23 20 20 20 20 20 20 21 21 22 22 23 23 23 24 24 24 23 22 22 22 24 27 29 27 24 22 21 22 23 24 24 23 23 23 24 24 24 25 25 25 25 26 26 26 26 26 27 28 28 30 30 30 30 31 32 32 32 31 30 30 30 30 30 30 29 29 29 28 28 27 27
29 30 32 36 40 45 50 54 58 58 54 45 33 25 21 21 21 21 21 21 22 22 23 24 24 24 24 25 25 25 24 24 23 22 23 25 29 29 26 24 22 22 22 23 25 24 24 23 24 24 24 24 25 25 25 25 26 26 26 26 26 27 28 28 28 28 29 28 29 30 30 30 30 29 29 29 29 29 29 29 29 29 29 30 30
36 36 35 36 40 46 53 58 61 61 56 49 38 29 24 23 23 22 22 23 23 23 24 24 25 25 25 25 26 26 25 26 25 24 23 24 27 29 28 27 25 23 22 22 23 24 25 24 24 24 24 24 24 25 25 25 25 26 26 26 26 26 27 27 27 27 27 27 28 29 29 31 31 31 30 30 30 31 31 30 28 28 28 29 31
42 42 39 38 43 48 55 60 63 64 60 53 44 35 30 27 26 25 24 24 24 24 25 25 25 25 25 27 27 27 27 29 30 28 25 23 25 28 29 28 26 25 24 24 23 24 24 25 25 24 24 24 24 24 26 26 25 26 26 26 26 26 26 26 26 26 26 26 27 27 27 29 31 32 31 30 31 32 32 32 30 29 31 35 39
45 45 44 44 48 52 59 63 66 67 64 58 50 42 36 31 28 26 26 26 25 25 26 26 26 26 27 29 29 29 31 35 38 36 32 26 24 26 28 29 28 27 26 25 25 24 24 25 25 25 25 25 25 24 24 25 26 26 26 26 26 26 25 26 25 26 26 26 28 29 27 27 29 30 30 30 31 32 32 31 32 34 40 48 53
45 46 49 51 54 57 63 67 70 71 69 63 55 49 43 36 31 29 29 28 27 27 27 27 28 29 31 34 37 40 44 49 52 51 47 40 33 29 28 28 29 29 28 27 27 26 25 25 25 26 26 25 25 25 24 25 25 25 26 26 26 26 26 26 26 26 26 27 31 35 35 31 29 29 28 29 30 30 31 31 32 37 47 55 59
46 47 51 55 60 63 68 72 74 73 71 67 60 54 48 41 37 34 32 30 31 30 30 31 34 38 43 49 54 59 63 66 66 66 64 61 56 51 45 41 37 33 31 29 28 28 28 26 26 26 26 27 26 26 25 25 25 25 25 26 26 26 26 26 26 26 26 27 30 35 41 44 40 35 30 28 29 30 30 32 32 36 47 56 60
45 47 49 54 62 67 69 70 73 72 70 67 62 56 50 45 42 39 36 34 34 35 38 43 48 55 60 66 70 74 76 77 78 76 75 73 71 68 65 62 57 51 46 41 36 33 30 28 28 27 27 27 28 27 26 26 25 25 25 26 26 26 26 26 26 27 28 28 28 29 36 47 50 46 40 32 29 30 30 31 33 34 44 56 61
45 45 45 50 58 64 66 66 67 69 70 68 64 58 53 50 47 45 42 41 44 48 53 59 65 70 74 78 79 79 79 78 77 72 69 66 64 64 65 66 67 67 65 61 56 50 44 37 31 28 27 27 28 28 28 27 27 26 26 25 26 27 27 27 27 28 28 29 29 29 29 36 41 43 47 40 31 31 30 30 33 34 43 57 63
45 44 45 49 55 59 64 64 64 67 71 70 67 62 58 56 54 53 53 56 60 63 68 72 75 75 74 74 74 73 71 68 66 63 61 59 59 60 61 63 65 68 71 70 68 66 62 56 46 36 30 28 27 28 28 28 27 27 27 27 26 27 28 28 29 29 30 30 30 31 29 30 31 35 47 48 38 34 33 30 31 33 41 56 63
41 41 45 50 54 57 61 64 65 68 71 70 68 66 63 63 62 64 66 69 71 73 75 74 70 65 63 64 65 64 63 61 60 58 57 58 61 63 65 65 66 67 69 71 70 69 69 68 64 55 43 34 29 28 28 28 27 27 27 27 27 27 28 27 28 29 30 31 30 31 29 29 31 34 45 54 50 43 38 33 31 32 37 52 63
37 38 45 52 55 57 59 63 67 69 70 71 70 70 69 70 72 74 75 77 78 76 70 63 58 57 58 59 57 56 56 55 52 51 53 59 66 69 70 69 70 69 69 72 73 72 70 68 69 68 62 51 41 35 31 29 28 27 28 27 27 27 27 27 28 27 27 29 29 29 28 28 32 36 41 52 57 53 47 39 32 32 35 48 61
33 36 45 53 57 58 59 62 67 70 72 72 74 76 78 80 81 80 79 79 74 65 57 54 54 56 57 53 47 46 46 44 43 46 52 60 67 69 67 66 70 70 68 72 75 75 72 69 70 71 72 69 64 57 51 45 39 33 30 28 29 29 28 28 31 32 30 29 27 28 28 27 32 37 38 43 54 58 55 46 36 33 36 46 58
32 37 45 52 58 60 60 62 66 71 74 74 76 80 81 83 83 80 76 69 60 54 52 51 51 53 50 41 36 34 33 32 34 37 43 51 56 59 59 60 66 66 66 71 75 76 73 71 74 74 73 73 73 74 72 69 64 57 47 37 31 29 30 30 33 36 37 38 34 30 29 30 32 36 38 43 52 55 55 52 41 36 37 47 57
32 34 41 50 57 59 61 63 66 70 73 74 76 79 79 78 75 70 62 55 51 50 49 45 43 41 35 29 26 25 25 26 27 28 32 36 39 43 47 51 57 59 63 68 71 73 71 72 78 79 77 76 75 77 79 79 79 76 71 60 46 36 31 30 32 35 41 49 47 38 31 33 35 36 39 43 46 45 49 54 46 38 38 49 58
30 33 41 49 53 57 62 65 64 67 71 73 75 75 71 65 61 55 49 48 48 44 38 32 29 27 25 24 24 23 25 25 26 27 27 28 29 32 36 41 46 49 54 61 64 65 65 68 75 77 78 79 78 78 79 81 82 83 82 79 70 60 49 41 39 43 53 63 64 56 45 39 39 39 38 40 41 40 50 56 49 42 40 50 61
29 36 46 51 52 57 64 64 64 67 69 71 72 67 57 50 50 49 48 48 42 33 27 24 23 24 24 25 25 26 27 27 28 28 28 29 30 31 32 35 37 41 46 51 57 60 59 60 64 67 73 78 79 79 80 81 83 86 87 85 83 81 77 69 64 64 72 78 76 73 68 60 50 42 40 41 43 48 60 62 51 45 41 50 63
33 39 48 54 56 60 63 64 67 67 65 66 64 54 45 44 48 48 47 42 33 25 23 25 25 26 26 26 28 29 28 28 29 30 32 32 32 32 32 31 32 35 39 42 47 53 55 55 56 58 66 74 76 78 81 84 85 84 86 88 87 87 88 87 86 86 88 88 85 82 84 82 65 47 43 45 47 54 68 69 55 49 44 49 64
37 44 50 58 62 62 63 66 68 63 59 57 52 47 45 46 47 43 38 32 26 25 27 28 27 26 25 25 26 26 25 26 29 33 38 39 38 37 34 32 31 31 33 35 38 42 46 49 51 53 58 65 71 74 76 80 80 77 79 86 89 88 87 86 88 92 91 91 92 88 86 89 79 61 51 50 50 54 69 73 61 51 45 49 65
40 48 52 59 63 62 63 67 64 55 51 50 47 49 49 47 42 33 28 25 25 27 28 28 27 26 25 24 24 24 24 24 27 34 42 48 49 49 47 45 43 38 35 35 37 38 38 40 42 47 51 55 62 66 69 73 74 75 77 81 84 85 85 86 87 88 90 92 93 89 87 91 90 77 63 58 55 53 65 75 67 55 47 51 67
41 48 53 57 59 57 58 61 58 48 46 51 51 49 46 39 31 24 23 24 25 25 26 27 27 27 26 26 25 24 24 25 26 30 39 48 53 54 54 54 53 50 46 45 46 45 44 42 40 41 42 46 51 55 61 67 69 72 75 80 82 81 83 87 88 88 91 94 92 89 89 92 93 85 76 71 64 55 60 74 74 61 48 51 68
42 49 54 55 55 55 52 51 49 44 48 54 47 37 33 29 23 22 24 24 24 25 26 27 26 27 28 26 26 25 25 26 26 27 32 41 49 52 52 53 53 52 52 52 52 52 52 51 48 44 41 41 44 48 53 58 60 62 65 73 77 78 80 82 83 86 90 93 92 90 89 90 88 85 84 82 73 61 59 69 76 68 50 47 64
44 49 50 46 47 52 50 45 44 46 49 47 36 27 24 23 21 23 25 25 25 25 25 26 26 27 28 27 26 26 26 26 26 25 27 33 39 43 46 47 46 43 43 43 44 47 49 51 52 50 48 44 43 45 49 52 52 53 55 60 63 68 74 74 75 80 84 87 90 92 91 89 90 88 87 87 82 72 66 70 77 73 55 47 62
49 48 42 36 38 44 48 45 43 45 42 35 27 23 22 22 23 25 26 26 25 25 26 26 26 27 28 29 28 27 27 27 27 26 25 27 30 32 34 34 33 32 31 32 35 38 42 48 54 56 56 53 50 49 51 53 52 52 53 52 50 56 64 67 70 77 81 85 90 95 96 94 94 93 92 88 83 78 74 76 82 79 59 48 63
55 50 40 35 36 40 46 43 39 37 32 27 24 22 23 24 25 26 26 25 25 26 27 27 28 31 31 31 29 28 27 26 25 24 23 24 25 25 25 24 25 25 27 29 32 35 38 44 52 58 62 62 59 56 57 59 59 58 57 53 48 48 51 57 68 78 83 84 85 89 94 96 95 95 95 89 81 81 83 83 87 85 63 51 65
59 52 43 38 38 40 42 38 32 30 28 25 22 22 24 25 25 26 26 25 27 29 30 32 33 33 33 30 28 27 26 25 23 22 21 21 22 21 21 22 24 25 25 26 28 31 34 39 45 51 57 60 61 61 59 62 67 69 69 64 58 52 44 46 61 75 81 81 81 83 88 92 94 96 96 92 84 82 86 87 89 87 69 55 65
55 45 41 41 38 37 36 33 30 30 27 23 22 24 25 25 26 26 26 28 32 35 36 36 32 30 29 28 27 26 25 24 22 21 21 21 22 22 23 24 25 26 25 25 25 26 29 32 37 44 49 54 59 62 60 61 69 75 76 73 69 62 51 48 59 71 77 81 83 85 87 88 91 95 97 95 89 81 81 85 89 89 76 62 63
47 38 39 41 36 33 32 32 33 30 25 22 23 25 24 25 26 27 31 37 39 38 36 32 29 28 28 29 28 27 24 23 22 22 22 23 24 25 25 25 25 25 25 23 23 24 27 31 36 42 48 52 57 62 62 65 72 76 77 79 79 74 65 64 69 73 78 83 85 87 88 90 93 96 97 95 91 86 81 82 88 90 83 71 61
47 40 40 38 33 33 32 31 34 30 23 22 24 24 24 26 29 33 39 43 41 37 33 29 29 29 29 29 28 25 23 23 23 24 25 25 25 25 25 24 23 22 21 21 25 32 39 44 48 50 55 58 61 64 61 64 72 73 72 76 80 80 76 76 76 74 76 78 82 88 91 95 97 98 99 96 92 90 84 79 85 89 87 79 65
53 46 41 38 33 34 33 29 31 27 22 23 24 23 26 29 33 39 43 45 41 36 33 31 30 30 29 27 25 24 23 23 24 25 25 24 23 23 22 20 20 19 21 27 37 48 54 58 61 63 65 67 70 73 69 66 66 65 68 75 81 83 79 78 80 79 79 78 79 84 91 98 100 99 100 98 94 92 86 77 80 86 88 85 71
59 52 44 41 39 37 35 29 26 24 22 24 24 25 28 32 38 43 44 43 40 35 34 33 32 30 27 24 23 22 23 23 24 24 22 21 20 19 18 18 18 21 28 40 49 56 60 62 65 67 69 72 75 80 80 78 73 66 65 72 78 78 75 77 81 81 82 84 80 78 86 97 98 98 100 101 97 93 87 78 77 82 87 89 75
59 54 49 48 44 42 38 28 22 22 23 23 25 27 30 35 40 44 44 43 40 36 35 34 30 27 24 22 21 21 23 24 23 21 19 18 17 17 17 16 18 26 38 48 53 57 62 64 67 67 70 73 77 82 85 88 87 76 66 68 72 71 71 76 80 82 84 86 81 77 85 95 97 98 99 100 99 95 90 80 74 78 85 90 79
52 53 53 51 47 45 39 28 21 21 23 25 27 29 32 38 45 48 49 46 40 35 33 30 27 25 23 20 20 22 24 23 20 19 17 17 17 17 17 18 24 36 45 51 55 59 62 65 69 69 71 74 78 84 87 90 94 86 73 71 74 71 69 74 80 84 84 82 79 81 86 94 98 99 98 99 100 96 92 82 73 77 85 91 85
Wind_Speed
14 17 17 15 13 12 11 10 9 9 9 8 7 8 8 8 7 7 7 7 9 10 11 12 13 15 16 16 17 18 18 18 19 19 19 19 18 18 18 17 15 14 12 11 10 9 9 9 8 8 8 8 8 7 8 9 9 8 8 8 8 7 7 7 7 7 8 8 9 9 8 8 7 7 7 6 6 7 7 8 9 11 12 11 11
12 15 17 15 14 12 11 11 10 10 10 9 8 8 7 7 7 7 6 6 8 9 10 11 12 13 14 15 15 16 17 17 18 18 18 18 18 17 17 17 16 14 13 12 11 10 10 10 10 10 9 9 9 8 8 8 8 8 7 7 7 7 7 7 6 6 7 7 8 8 7 7 7 7 7 7 7 8 8 9 9 11 13 13 14
11 12 16 15 14 13 12 12 11 11 10 9 9 8 8 7 7 6 5 5 7 8 9 10 11 12 13 13 14 15 15 16 17 16 16 17 17 16 16 16 16 15 14 13 12 11 11 12 11 11 10 9 9 9 8 8 8 7 7 7 6 7 7 6 6 6 6 6 7 7 6 6 7 8 8 8 8 8 9 9 10 12 15 16 17
12 12 15 14 14 14 13 12 11 11 10 10 9 8 8 7 7 6 5 5 6 7 7 8 9 10 11 12 13 13 14 14 15 15 15 15 15 15 15 15 15 15 14 13 13 13 13 12 12 11 10 10 9 9 9 9 9 8 9 8 8 7 7 7 7 6 6 6 6 7 7 7 8 9 9 9 9 9 10 11 12 14 17 18 19
14 13 14 14 14 14 14 13 12 11 10 10 9 9 8 7 7 6 5 4 5 5 6 7 7 8 10 10 11 12 12 13 13 13 13 13 14 14 14 15 15 15 15 14 13 13 13 12 12 11 10 10 10 10 10 10 10 10 10 9 9 8 8 8 8 8 8 8 8 8 9 9 10 10 10 10 10 11 11 12 14 16 18 18 19
16 16 14 13 13 14 14 13 12 11 11 10 9 9 8 8 7 6 5 4 4 5 5 5 6 7 8 9 10 11 11 11 11 11 11 12 12 13 13 14 14 14 14 14 14 13 13 12 12 12 11 11 11 11 11 11 11 11 11 10 10 10 10 10 9 9 9 9 9 10 10 10 10 11 12 12 13 13 13 13 14 16 17 18 18
16 17 15 14 14 14 13 13 13 11 11 10 9 9 9 8 8 7 6 5 4 4 4 4 5 6 7 8 9 9 10 10 10 9 9 10 11 12 12 13 13 14 14 14 14 13 13 12 12 12 12 12 12 12 13 13 12 12 12 11 11 11 11 11 11 11 12 12 12 12 13 13 13 13 14 14 14 14 14 14 14 15 16 17 18
16 17 16 15 14 14 13 13 13 12 10 9 9 10 10 9 9 8 7 5 4 4 3 3 4 5 6 7 7 8 8 8 8 8 8 8 9 10 11 11 12 13 13 13 13 13 13 12 12 12 13 14 14 14 14 15 14 14 13 13 13 14 15 15 15 15 15 15 15 15 16 16 15 14 15 15 14 14 14 14 14 15 16 17 17
15 16 16 16 15 14 14 13 13 12 11 10 10 10 11 10 9 9 7 6 5 4 3 2 3 4 4 5 6 6 7 7 7 7 6 7 8 8 9 10 10 11 11 12 12 13 13 13 13 13 13 14 14 15 15 15 15 14 14 15 15 16 16 16 16 17 17 17 17 17 18 17 16 15 15 14 14 14 14 13 14 14 15 15 16
14 15 16 16 15 15 14 14 13 12 11 11 11 11 11 11 10 9 8 7 5 4 3 2 1 2 3 4 5 5 5 6 6 5 5 5 6 7 8 8 8 9 10 10 11 12 12 12 13 13 14 14 15 15 15 14 14 14 14 15 15 15 16 16 16 17 17 17 17 17 17 17 16 15 14 14 14 14 13 13 13 13 13 14 14
13 14 15 15 16 15 15 14 14 13 12 11 12 12 12 11 10 10 8 7 6 4 3 2 1 1 2 3 3 4 4 4 4 4 4 4 5 5 6 6 7 7 8 9 10 11 11 11 12 12 13 13 14 14 14 13 13 13 13 13 14 14 14 15 16 16 16 17 17 17 16 16 15 14 13 13 13 13 12 12 12 12 12 12 12
12 13 13 14 16 16 15 15 14 13 12 12 12 12 12 11 11 10 9 7 6 5 4 3 2 1 1 1 2 3 3 3 3 3 3 3 3 4 5 5 5 5 6 7 8 9 10 10 10 11 11 12 13 13 13 12 12 12 12 12 12 13 13 14 15 15 15 15 15 16 15 14 14 13 12 12 12 11 11 10 10 10 10 10 10
11 12 13 14 15 15 15 15 14 13 12 12 12 12 12 12 11 10 8 7 6 5 4 3 2 1 1 1 2 2 2 2 2 2 2 2 3 3 3 4 3 4 4 5 6 7 8 9 9 9 10 11 11 12 11 11 11 11 12 11 11 12 12 13 13 13 13 13 13 13 13 12 11 10 10 10 9 9 9 9 8 8 8 8 8
11 11 12 13 14 14 14 14 13 13 12 12 12 12 12 11 11 9 8 7 7 6 5 4 3 2 2 2 2 2 2 2 1 1 1 1 2 2 2 2 3 2 3 4 4 5 6 7 7 8 8 9 9 9 10 10 10 10 10 10 10 11 11 11 11 11 11 11 11 11 11 10 9 8 7 7 7 6 6 6 6 6 6 6 6
11 11 11 13 13 13 12 12 12 12 12 12 12 12 12 11 10 9 8 8 7 6 5 5 4 3 3 2 2 2 2 1 1 0 0 1 1 2 2 1 2 2 2 2 3 3 4 5 5 6 6 6 7 7 7 8 8 8 8 8 9 9 8 8 8 8 8 8 8 8 8 7 6 5 5 4 4 4 4 4 4 4 4 4 5
11 11 12 12 11 11 10 11 12 12 12 11 11 12 12 11 10 9 9 8 7 6 6 5 4 4 4 3 3 3 3 2 2 2 1 1 1 2 3 2 1 1 2 2 2 2 2 3 3 4 4 4 4 4 5 5 5 5 6 6 6 6 6 6 5 5 6 6 6 6 5 5 4 3 2 2 1 1 1 1 1 2 2 3 4
10 11 11 11 10 10 10 10 11 12 11 11 11 12 12 11 10 9 9 8 7 6 6 6 5 4 4 4 4 4 4 3 3 3 2 2 2 3 4 4 3 2 3 3 3 2 2 1 1 2 2 2 2 2 2 2 2 3 3 3 3 3 4 3 3 4 4 4 4 4 4 4 4 3 3 3 3 3 3 2 2 3 3 4 4
10 9 10 10 10 10 10 11 11 11 10 10 11 12 12 11 10 9 9 8 7 7 7 6 5 5 5 4 4 4 4 4 4 4 4 3 3 4 4 5 4 4 4 4 4 4 4 3 3 2 2 2 1 1 1 1 2 3 2 2 2 3 3 3 3 4 4 4 5 5 5 5 5 5 5 6 6 7 7 7 6 6 7 7 7
9 9 9 10 10 10 10 11 11 10 10 10 11 12 12 11 10 10 9 8 7 8 7 6 5 5 5 5 5 5 5 5 5 5 5 5 5 5 5 6 6 6 6 6 6 6 6 6 5 5 4 4 4 3 2 2 3 4 5 5 4 4 4 4 4 5 5 6 6 6 7 7 6 6 6 7 7 8 9 10 11 10 10 10 10
8 8 8 9 9 11 11 12 12 11 11 11 12 12 12 11 10 10 9 8 8 8 7 6 6 6 6 6 6 6 5 5 5 6 6 6 6 6 7 7 8 8 8 9 8 8 8 8 8 7 7 7 6 6 5 4 4 4 6 7 6 6 6 6 6 6 7 7 8 8 8 8 8 8 8 8 9 9 10 11 12 13 13 13 13
7 7 7 7 9 11 12 13 13 13 13 12 12 12 11 11 10 9 8 8 8 8 7 6 6 6 6 6 6 6 6 5 5 6 7 8 8 8 8 9 9 10 11 11 11 11 11 10 10 10 10 10 9 8 8 7 6 6 7 8 8 8 8 8 8 8 8 9 9 9 9 9 9 9 10 10 11 11 11 12 12 13 13 13 14
6 6 6 7 8 10 12 13 14 14 13 13 13 12 11 11 10 9 9 9 8 7 7 7 7 7 7 7 7 7 7 7 6 6 7 8 9 10 10 10 11 11 12 13 13 14 13 13 12 12 12 13 12 11 10 10 10 9 9 9 9 10 10 10 10 10 10 10 11 11 11 11 11 11 11 12 12 12 12 12 12 12 12 13 13
4 5 6 6 8 10 12 13 14 14 14 13 13 12 12 11 11 10 9 9 9 8 8 8 8 7 8 8 7 8 9 9 9 8 9 9 10 11 12 12 12 13 14 14 15 16 16 15 15 15 15 15 15 14 13 13 12 12 11 11 11 12 12 12 12 12 12 12 13 13 13 13 12 13 13 13 13 13 13 13 12 12 12 12 13
5 5 6 6 7 9 11 13 13 14 14 14 13 13 13 12 12 11 10 10 9 9 9 8 8 8 8 9 9 9 10 11 11 10 10 10 11 12 13 14 15 15 15 16 16 17 17 18 18 17 17 17 18 17 16 15 15 15 14 14 14 14 14 14 14 14 14 14 14 15 15 14 14 14 15 15 14 15 15 14 12 11 12 12 13
6 7 7 7 8 10 11 12 13 14 14 14 13 13 13 13 13 12 11 10 9 9 9 9 9 9 10 10 11 11 11 11 12 12 12 12 12 12 13 15 16 17 17 18 18 18 19 19 20 20 20 19 20 20 19 18 18 17 17 16 17 17 16 16 16 16 16 16 16 16 16 16 15 16 16 16 16 16 16 15 14 12 12 13 13
8 8 7 7 9 10 11 12 13 13 14 14 13 13 13 12 12 11 11 10 10 10 10 10 10 10 11 11 11 11 11 11 12 12 12 13 13 13 13 15 16 17 18 19 20 20 20 21 21 22 22 21 22 22 21 20 20 20 19 19 19 19 19 18 18 18 18 18 17 17 17 17 17 18 18 17 17 17 17 17 15 14 13 13 14
10 9 7 8 9 10 11 11 12 12 13 13 13 13 12 12 11 10 10 9 10 10 10 10 11 11 11 11 11 11 11 10 11 11 12 13 13 14 14 14 14 16 17 19 20 22 22 23 23 23 23 23 23 24 23 23 23 22 22 21 21 21 21 21 20 20 20 19 19 19 19 19 19 20 20 18 18 18 18 18 17 16 14 14 14
10 9 8 9 9 9 10 10 11 12 13 13 13 13 12 12 11 10 10 10 10 11 11 11 11 11 11 11 10 9 9 10 10 11 12 12 13 13 13 13 13 14 15 17 19 20 22 23 24 25 25 25 24 25 25 25 25 25 24 24 23 23 23 22 22 22 21 21 20 20 20 20 21 22 21 19 18 19 19 19 18 17 16 15 14
10 9 8 9 9 9 10 11 12 13 13 14 13 13 12 11 11 11 10 11 11 11 11 11 10 10 9 8 8 8 9 9 10 10 11 12 12 12 12 12 13 14 15 16 17 19 21 22 23 25 26 26 26 26 26 27 27 27 27 26 25 25 25 25 24 24 23 22 22 22 21 21 22 22 21 19 18 19 19 19 19 18 17 15 15
9 8 8 9 9 10 11 12 13 14 14 14 14 13 12 12 12 12 11 11 11 11 10 9 7 7 6 7 8 9 9 9 10 10 10 10 10 10 11 12 13 14 15 16 17 18 20 21 22 23 25 26 27 28 28 28 29 29 30 29 28 27 26 26 26 26 26 25 24 23 22 22 23 23 22 21 19 18 19 20 20 19 18 16 15
7 7 8 9 10 10 11 13 13 14 14 14 14 14 13 13 12 11 11 10 10 9 7 6 6 6 6 8 8 8 8 9 9 9 9 9 9 10 11 12 13 14 16 16 16 17 18 19 21 22 24 26 27 29 29 29 30 30 31 30 29 28 27 27 27 27 28 28 26 25 24 23 24 24 24 23 21 20 20 20 20 19 19 17 15
7 8 9 9 9 10 11 12 13 13 13 14 14 14 13 12 12 11 10 9 8 7 6 5 6 6 6 7 7 8 8 8 9 9 9 9 10 10 12 12 13 15 16 16 16 16 16 17 19 21 22 24 26 28 29 30 30 30 31 32 31 30 29 28 28 28 29 30 29 28 25 24 25 25 24 23 22 22 21 21 20 20 19 17 15
8 8 9 9 9 10 11 11 11 12 12 13 13 12 12 11 11 10 9 8 7 5 5 5 4 4 4 5 6 7 7 8 9 10 10 10 11 11 12 13 14 15 15 16 17 16 16 16 18 21 22 23 24 26 28 29 29 29 30 32 32 32 31 30 29 29 30 31 31 30 28 26 25 25 24 23 23 23 23 21 19 19 19 17 15
9 8 9 10 10 10 10 10 10 11 11 11 11 11 11 11 10 9 8 7 5 4 3 2 2 2 3 4 6 7 8 9 10 11 11 12 12 13 13 14 14 15 15 15 16 16 16 16 17 20 22 23 23 24 26 27 28 28 29 30 32 32 32 31 31 32 32 32 32 31 30 27 25 25 24 24 23 24 23 20 18 19 19 17 15
8 9 10 11 11 10 9 9 10 11 11 11 11 11 11 10 9 7 6 5 2 1 0 1 2 3 4 6 7 8 10 11 12 13 13 14 14 14 14 14 15 15 16 16 16 16 16 16 16 18 20 22 22 23 24 25 27 28 28 29 30 31 31 32 32 33 34 33 32 31 29 27 25 24 24 23 23 23 21 19 17 18 19 18 16
9 10 11 11 10 9 8 9 11 11 11 12 11 11 11 9 7 5 4 3 2 1 1 2 3 5 6 7 8 10 12 14 15 15 15 16 16 16 16 16 16 16 17 17 18 18 18 17 17 18 19 21 22 22 22 23 26 27 28 28 29 29 30 31 32 34 34 33 31 31 29 26 25 24 25 23 22 21 20 19 17 17 18 17 16
10 11 11 11 10 9 9 11 12 11 11 12 12 11 10 8 6 5 4 3 3 3 2 3 4 6 7 8 10 12 15 16 17 18 18 18 17 18 18 18 18 18 18 18 19 20 21 20 20 20 20 21 22 22 22 24 25 24 25 26 26 27 27 27 29 31 33 32 30 30 29 26 25 25 25 24 22 21 19 19 17 16 17 17 16
11 12 12 11 10 10 11 12 12 11 12 13 12 10 8 7 6 6 5 5 4 2 1 3 5 6 8 10 12 14 16 18 19 19 19 18 18 18 19 20 19 19 19 19 20 22 23 23 23 22 22 22 23 23 23 25 25 24 23 24 24 25 26 25 26 27 29 30 29 27 27 27 26 25 25 24 23 21 19 19 18 17 16 17 15
12 13 13 11 11 11 12 13 12 12 13 12 10 8 8 8 8 7 6 4 2 1 2 4 6 7 9 11 13 15 17 18 19 19 19 18 18 19 20 21 21 20 21 21 22 23 24 25 25 25 25 25 25 25 25 26 26 25 24 24 24 24 24 25 25 25 26 27 28 27 26 28 27 26 25 24 24 22 20 19 19 18 16 16 15
13 13 13 12 11 12 13 13 13 13 12 10 9 9 10 10 8 7 4 2 1 2 4 5 7 8 10 12 13 15 17 18 19 19 19 19 19 20 20 21 21 21 22 23 23 24 24 25 26 26 26 26 27 27 27 27 28 27 26 25 24 24 24 25 26 25 25 25 26 26 25 27 28 27 25 24 25 23 20 20 20 19 17 16 15
14 15 14 13 13 13 13 13 13 13 11 11 10 10 10 9 7 5 2 0 2 4 5 6 8 9 11 12 14 16 18 19 19 18 18 18 19 20 21 21 22 23 24 24 25 25 25 26 26 27 27 28 28 28 28 29 30 29 28 27 26 26 26 26 25 25 24 24 24 24 24 26 27 28 27 25 25 23 21 20 20 20 18 16 15
15 16 15 15 15 14 13 14 13 12 11 11 11 10 10 8 6 4 1 2 3 4 6 8 9 11 12 13 15 17 18 19 18 17 17 18 19 20 21 22 23 24 25 25 26 26 26 27 27 27 28 28 29 29 30 31 31 30 29 29 28 28 27 27 26 24 23 23 23 24 25 27 27 28 28 26 25 23 22 21 20 20 19 17 15
17 17 17 16 16 14 13 13 13 12 12 11 11 10 9 7 5 3 3 3 4 5 7 9 10 12 13 15 16 17 18 18 18 18 18 19 20 21 22 23 24 25 25 26 27 28 29 29 29 29 29 29 29 30 31 32 33 32 31 31 30 29 28 27 26 24 22 23 24 25 26 27 28 29 29 28 27 24 23 22 20 20 19 18 16
18 18 17 16 16 14 13 13 13 12 11 11 11 10 8 6 5 4 4 4 5 6 8 10 10 12 14 15 17 18 18 18 18 19 19 20 21 22 23 24 25 26 26 27 29 30 31 31 32 32 31 31 31 30 31 33 34 34 34 32 31 31 29 27 26 24 23 25 25 26 27 27 28 31 31 30 28 25 23 23 21 20 19 18 17
17 17 16 15 15 14 13 13 12 11 11 11 11 10 8 7 6 5 4 5 6 7 9 10 10 11 13 16 18 19 19 20 20 20 20 20 21 22 23 24 25 26 27 28 30 31 32 33 34 34 34 34 33 32 32 33 34 34 35 34 33 32 30 28 27 25 24 25 26 26 27 27 28 29 31 30 28 27 25 24 23 21 20 20 18
17 16 14 14 15 15 14 12 11 10 11 12 12 10 9 7 5 4 5 6 8 9 10 10 11 12 13 16 18 19 20 20 20 20 20 20 20 21 22 23 24 26 27 29 30 32 33 34 35 36 37 36 36 35 33 33 35 35 35 35 34 33 31 30 30 28 26 26 27 27 27 28 28 28 30 30 28 27 26 25 24 22 21 21 20
15 14 14 14 15 15 14 13 12 11 12 13 12 10 8 6 5 5 6 8 10 11 11 11 11 13 14 16 17 19 20 20 20 19 19 19 20 21 22 23 24 26 28 29 31 31 32 33 34 36 37 37 38 38 37 34 36 37 36 35 33 33 32 32 32 31 30 28 28 28 28 28 28 28 29 30 29 28 27 26 25 24 23 23 22
15 14 14 14 16 16 14 14 14 13 13 14 12 10 7 6 5 6 8 9 11 12 12 11 12 14 16 16 17 18 19 19 18 18 18 19 20 21 23 24 25 26 28 29 30 30 30 31 32 33 35 36 38 39 39 37 36 38 38 35 32 32 33 33 33 32 31 31 30 29 29 28 28 28 28 29 29 29 28 27 26 25 25 24 23
15 16 17 16 16 16 14 14 16 14 14 14 12 9 7 6 7 8 9 11 12 12 12 12 13 15 16 17 17 18 18 17 17 17 18 19 21 22 23 24 26 27 28 28 29 29 30 30 29 31 32 33 35 37 38 37 36 36 37 37 34 32 31 32 32 32 31 31 31 31 29 28 29 28 27 28 29 30 29 29 28 27 27 26 25
16 17 19 18 17 17 14 14 16 16 15 14 11 9 8 8 8 9 10 12 12 12 12 12 13 14 16 17 18 18 17 17 17 18 20 21 23 24 24 25 27 27 28 28 29 29 29 29 29 29 30 29 30 32 34 34 34 34 36 37 34 31 30 29 30 31 31 31 32 32 29 28 28 26 25 27 28 30 30 30 30 29 28 28 27
15 17 18 18 18 18 16 15 17 17 16 14 12 11 10 9 9 10 11 13 13 12 12 12 13 14 16 18 18 19 18 18 19 20 22 24 25 26 26 27 27 27 28 29 29 29 29 29 28 27 27 27 27 27 28 30 31 31 33 34 33 31 30 29 30 31 31 31 31 31 29 26 25 23 23 25 26 28 29 30 30 29 29 29 28
Wind_Direction
164 157 160 162 165 168 167 173 179 179 178 175 166 155 145 135 123 110 96 85 75 68 65 61 57 56 57 57 57 56 54 52 51 51 52 53 53 53 52 52 53 54 56 57 57 56 56 56 57 58 59 58 60 61 65 84 103 110 108 101 91 86 81 77 74 71 68 63 61 53 49 55 50 45 40 37 46 54 64 73 83 91 93 90 90
173 161 161 162 165 169 172 180 188 187 185 181 173 164 156 146 133 121 107 93 81 72 66 60 58 56 56 56 54 53 52 50 49 50 52 53 54 54 54 53 53 55 57 58 58 56 56 58 58 59 60 60 61 61 61 73 90 100 99 96 90 84 78 72 66 62 60 55 60 52 38 43 47 49 53 58 65 67 73 80 86 94 95 95 93
179 169 163 163 165 169 176 186 193 192 192 187 179 174 167 157 145 133 121 103 88 76 69 62 58 56 56 54 52 51 51 50 48 50 52 53 54 55 56 55 54 54 56 57 57 57 57 61 63 63 63 63 64 64 66 70 80 89 90 87 82 76 70 66 60 57 54 46 53 52 33 36 54 63 68 71 73 73 75 81 86 92 96 97 94
178 178 168 165 166 171 178 187 195 197 198 193 186 182 176 166 158 149 138 117 97 83 75 64 57 54 54 51 50 50 50 50 50 50 52 53 54 56 57 57 56 55 54 54 55 57 60 65 68 69 68 66 67 68 71 72 75 80 82 79 73 68 64 63 65 60 55 47 46 53 47 49 66 72 73 74 74 75 78 85 90 93 96 96 93
174 179 171 166 169 174 179 186 194 200 201 198 193 190 186 179 171 163 155 136 112 94 82 67 57 52 50 48 47 48 48 50 50 51 53 55 55 56 58 59 58 56 55 53 53 56 62 68 72 73 70 67 67 68 70 71 73 75 76 74 70 66 65 64 65 63 60 60 59 64 64 64 71 73 74 76 77 79 83 88 91 93 95 94 92
172 176 173 171 174 178 181 186 193 200 203 201 200 199 198 191 182 176 171 157 131 108 92 72 57 50 48 46 45 46 47 48 49 52 55 55 55 56 57 59 59 58 56 54 52 55 62 67 70 72 71 68 66 67 68 69 71 73 73 70 70 69 69 68 66 65 64 66 67 71 72 71 72 77 80 80 81 83 85 87 88 90 91 91 89
174 177 175 177 181 183 185 187 193 200 203 205 206 208 208 200 192 187 184 173 152 126 103 77 59 50 46 44 44 45 46 47 47 51 56 56 55 56 57 58 60 59 58 56 54 54 59 63 67 70 70 69 67 68 68 69 69 71 72 70 72 74 74 73 71 70 70 71 72 75 77 78 78 81 83 83 82 82 83 83 84 85 86 86 85
177 178 177 183 186 187 189 190 194 200 203 209 213 215 213 207 200 195 192 184 168 147 118 85 65 52 44 42 42 43 44 45 46 48 54 58 56 55 56 57 59 60 58 56 56 56 57 61 65 69 71 70 69 69 68 68 69 71 75 76 77 78 78 76 76 75 75 75 76 78 80 81 80 79 81 82 80 78 78 78 79 80 80 81 81
176 178 180 187 190 190 192 193 196 200 204 211 218 219 217 213 207 202 197 190 179 164 141 102 73 56 44 37 36 38 40 41 43 46 52 58 57 55 54 55 57 59 59 58 58 57 57 59 64 68 71 72 69 67 65 66 69 72 75 77 78 78 78 78 78 78 78 77 76 77 78 79 78 76 76 77 77 76 75 74 75 75 76 77 77
175 176 181 187 192 194 195 195 196 200 204 212 221 222 220 218 212 207 200 193 185 177 166 143 95 65 45 33 30 29 34 38 41 44 50 59 58 56 54 54 56 58 60 61 60 58 57 58 62 67 71 73 70 66 64 65 68 72 74 76 78 80 82 82 81 81 80 78 77 74 74 75 75 73 71 72 73 74 73 72 71 70 71 72 73
176 175 181 186 191 195 197 197 197 200 203 212 222 224 224 221 217 210 202 196 192 187 184 181 154 88 48 30 21 17 26 35 38 41 49 57 56 55 54 53 54 56 58 61 63 60 57 58 60 66 72 74 73 71 68 69 71 74 77 80 82 84 84 84 83 81 80 79 78 75 73 73 72 69 67 67 69 70 71 71 70 68 67 67 68
180 180 183 188 192 195 197 197 196 198 203 214 224 228 228 225 221 212 204 199 197 196 196 202 197 165 45 14 359 360 13 28 34 35 47 54 47 49 52 51 49 51 54 58 62 63 61 59 59 64 70 75 76 77 75 75 76 77 78 80 81 81 81 82 82 81 81 79 78 77 74 71 70 69 66 65 66 67 67 68 68 67 65 63 61
186 188 189 191 196 197 196 197 196 198 204 215 227 231 232 229 224 214 206 202 202 203 206 215 214 213 245 309 328 333 352 16 26 26 40 47 35 31 42 45 43 44 46 51 58 61 63 62 61 63 66 73 80 82 81 79 76 74 73 74 74 74 75 78 80 81 81 80 79 79 78 75 72 70 67 65 64 65 64 64 64 63 60 56 52
191 194 195 195 199 199 196 196 194 198 206 217 228 235 236 232 226 217 209 206 207 209 213 222 224 229 244 266 292 308 324 355 7 19 37 34 19 3 14 35 33 32 33 38 47 53 59 63 63 63 64 69 78 83 84 82 78 75 74 71 69 68 69 72 75 78 79 79 78 77 79 81 80 76 71 67 63 63 61 60 59 55 50 45 38
193 193 198 201 202 201 197 195 193 198 208 218 229 237 239 234 227 219 213 212 213 216 222 227 228 235 245 256 269 286 294 300 312 310 271 353 348 333 330 349 13 10 8 15 24 36 49 57 59 61 66 67 71 78 83 85 84 82 78 73 67 64 64 64 64 68 72 74 73 71 72 78 82 80 79 76 68 63 60 59 55 43 33 24 16
195 191 198 205 204 202 197 194 193 200 208 217 229 238 239 234 228 221 217 218 218 223 228 229 231 236 241 253 263 272 277 275 274 260 239 265 304 306 298 293 309 323 322 321 334 353 16 41 51 49 56 68 71 72 80 85 85 83 78 73 70 66 60 57 52 48 54 58 60 59 57 55 52 50 54 56 49 29 28 54 34 6 348 346 344
201 194 195 201 203 201 196 194 196 202 208 217 229 237 237 233 227 223 221 221 222 227 231 231 232 237 242 251 261 264 266 270 266 261 254 255 274 287 282 280 284 289 291 289 287 295 307 324 5 18 17 40 67 69 66 62 57 60 64 63 59 52 41 34 33 26 24 23 23 25 20 8 356 344 334 325 312 300 295 284 277 285 293 302 309
205 197 192 194 198 197 194 195 197 202 209 219 229 234 234 230 226 224 224 223 224 230 233 234 236 241 248 253 258 262 263 269 270 263 260 262 267 272 274 275 279 278 277 279 275 275 277 278 281 282 296 311 317 329 3 333 335 351 350 356 3 7 7 360 2 3 357 355 348 341 337 334 330 322 314 310 304 296 291 286 280 278 279 281 286
204 199 194 193 194 194 194 194 196 201 208 218 225 229 230 228 226 226 225 225 228 233 236 238 243 248 253 259 261 264 268 270 273 270 264 267 270 268 269 271 274 275 273 273 272 271 271 269 270 269 270 278 289 290 284 289 302 315 316 320 328 332 336 339 343 343 341 338 335 333 330 326 323 318 313 310 306 298 293 289 284 280 278 278 280
206 202 198 197 194 193 192 193 195 197 203 211 218 221 223 225 227 228 228 230 233 237 241 245 250 256 259 265 270 272 276 277 278 278 274 271 272 273 271 272 273 274 274 272 271 270 269 268 267 267 266 267 275 282 279 276 281 292 303 310 314 316 318 321 326 331 332 330 330 332 332 328 323 321 320 318 314 309 302 296 291 286 282 280 280
209 206 203 199 196 194 193 194 195 195 199 205 210 214 217 221 225 228 231 234 239 242 247 253 256 260 265 270 277 281 280 279 277 273 275 274 273 276 276 276 275 275 274 273 272 271 269 268 267 266 266 266 266 271 275 274 275 280 291 300 303 307 310 313 318 321 323 324 324 325 326 325 323 322 323 323 321 318 314 307 299 293 288 284 282
210 213 210 200 195 194 194 195 195 195 197 202 205 208 211 216 222 226 229 234 240 244 249 256 258 262 268 275 279 281 281 278 273 265 263 265 267 270 273 275 275 275 275 274 273 272 271 268 267 266 265 265 264 264 268 271 272 275 280 287 292 296 302 306 310 314 316 317 318 318 319 321 322 321 322 323 324 324 321 315 306 297 292 289 286
193 203 204 198 192 191 194 195 193 193 197 201 201 202 205 210 216 222 227 232 237 242 248 254 260 267 271 276 276 274 277 278 276 269 261 256 257 260 264 268 269 271 272 273 273 273 272 270 268 267 266 265 265 263 263 266 269 271 274 277 281 285 291 296 300 305 309 313 314 313 313 315 317 317 319 322 324 325 324 321 313 303 296 293 291
167 180 189 190 188 188 191 191 188 192 196 198 199 200 203 206 210 217 223 230 235 241 248 256 262 267 268 269 271 271 274 278 279 277 272 265 259 257 259 263 265 266 267 268 270 272 272 272 271 268 267 267 267 266 264 264 266 268 271 274 276 279 283 287 292 297 301 308 312 312 311 312 313 314 316 318 321 324 324 323 319 309 301 298 295
170 173 177 181 184 187 188 187 187 192 195 196 197 200 203 205 209 214 220 228 236 244 249 256 261 262 264 268 272 275 276 279 281 281 279 276 271 266 262 262 264 265 265 266 267 269 270 271 271 270 269 268 269 269 267 266 265 267 269 272 275 277 280 283 286 291 295 302 307 310 311 311 312 312 313 315 318 320 321 322 320 314 306 301 298
169 168 168 178 183 187 188 186 189 193 195 195 196 199 203 207 209 213 219 226 236 244 250 254 259 262 265 269 271 273 276 277 278 280 279 279 278 275 270 265 262 262 263 265 266 267 268 268 269 269 270 270 270 270 270 268 267 267 267 269 273 276 279 280 282 285 289 295 300 304 306 308 311 312 310 309 312 314 316 319 320 316 309 303 300
169 171 174 183 185 187 190 190 191 194 198 197 195 199 202 204 208 213 220 228 237 243 250 255 258 261 263 265 268 269 272 275 277 279 281 282 282 280 277 271 265 262 260 261 263 264 265 265 265 266 267 268 270 271 271 271 270 269 267 266 267 271 275 277 280 282 285 289 293 297 300 302 305 308 308 304 307 310 313 317 319 317 311 307 304
171 173 176 181 184 185 190 194 195 195 198 199 197 200 201 202 207 214 222 230 238 243 249 254 256 259 262 265 269 273 277 281 284 286 287 287 285 283 279 276 271 265 261 260 260 261 262 262 263 263 264 266 268 270 271 272 272 271 269 266 265 267 270 272 275 279 282 284 288 291 295 298 301 305 305 303 305 309 311 313 316 316 311 309 308
175 172 172 178 183 184 190 195 199 198 199 200 199 201 203 205 209 215 223 228 235 242 247 251 255 260 266 273 278 284 289 292 296 295 293 289 285 283 281 279 276 271 265 261 260 260 260 260 260 262 262 263 265 267 268 269 271 271 270 267 265 265 267 270 272 275 278 281 284 287 290 295 299 301 302 301 303 306 308 309 311 314 311 310 311
177 173 173 180 185 188 192 197 200 200 200 201 200 201 205 209 213 216 220 225 233 241 247 249 256 266 276 289 294 295 297 299 301 301 296 289 284 282 282 281 279 277 272 266 262 259 258 259 259 260 261 262 263 263 264 266 268 269 270 270 269 267 268 271 273 275 277 278 279 283 286 291 294 296 296 297 299 302 306 306 308 312 311 310 311
181 177 180 184 188 193 196 199 202 202 202 201 200 201 206 212 215 216 219 225 233 239 246 257 271 283 290 297 301 302 305 308 308 306 300 291 285 283 282 281 276 276 276 274 272 267 264 263 260 258 259 260 261 262 263 264 265 267 270 271 271 271 270 271 273 274 276 277 277 278 281 284 287 290 292 293 294 298 303 305 305 309 309 308 310
189 183 186 190 194 199 201 203 205 203 202 201 200 202 205 210 214 216 219 223 227 234 252 277 291 293 294 300 308 314 318 318 313 308 305 299 293 288 284 281 276 275 278 279 281 280 278 274 268 264 262 261 261 263 265 266 266 267 269 271 272 272 272 271 272 272 273 274 275 275 276 278 280 284 288 290 290 293 297 300 302 305 306 305 308
196 193 193 195 200 205 205 206 207 203 201 201 200 201 203 206 210 213 215 214 221 243 273 294 303 298 300 313 323 328 327 321 314 310 309 306 300 295 290 287 283 282 283 282 283 283 281 279 275 272 270 268 265 264 265 266 267 269 270 271 272 272 272 272 272 272 272 272 273 274 272 271 274 279 283 287 289 291 292 294 297 302 303 303 306
200 197 197 200 204 209 208 207 207 202 199 198 196 200 202 202 202 205 207 211 231 267 295 310 322 329 335 340 338 333 326 318 315 314 312 308 303 299 296 293 291 290 288 286 285 285 282 280 277 274 275 274 271 267 264 265 267 268 269 270 272 273 272 272 271 272 273 273 272 272 270 267 269 274 278 283 288 291 291 288 291 298 302 302 304
203 193 195 202 206 211 209 205 204 198 194 193 193 198 199 196 197 200 207 217 242 279 334 19 20 11 360 350 340 330 323 319 318 317 312 307 303 299 295 293 291 292 291 289 287 286 285 283 280 277 277 277 275 271 268 268 268 268 268 268 271 272 273 272 271 271 272 272 270 268 266 264 265 269 273 278 284 288 287 283 286 296 299 300 303
204 194 192 200 208 212 208 200 198 193 188 188 191 195 195 195 199 203 207 202 170 124 79 38 21 10 357 344 334 326 323 322 320 317 312 307 304 301 297 294 292 291 291 292 292 290 288 287 285 282 279 278 278 277 275 273 271 270 271 270 270 271 272 272 271 271 270 270 268 265 263 261 263 267 270 273 278 283 281 277 281 292 296 297 300
202 196 192 198 205 205 200 196 193 190 186 184 186 189 192 196 199 198 186 159 136 107 62 22 6 357 347 337 331 328 325 324 321 317 313 310 308 305 303 301 299 296 294 295 296 295 294 292 290 287 283 281 280 281 280 277 274 274 272 272 273 274 274 273 270 269 269 270 269 264 258 259 263 265 267 268 272 277 277 274 275 284 291 294 296
198 195 197 198 196 194 193 193 190 187 184 181 182 185 187 189 187 181 165 144 129 103 36 358 352 344 338 335 331 329 326 323 320 317 315 313 311 309 308 307 305 303 301 300 299 297 297 297 295 292 288 284 282 281 281 281 281 279 276 274 275 276 277 276 272 270 270 271 271 265 254 255 261 261 263 266 268 272 273 272 272 277 285 290 292
197 195 200 202 196 192 189 189 188 185 183 181 181 184 185 184 179 171 159 143 122 44 352 345 341 335 333 333 330 327 324 321 319 318 316 315 314 313 313 313 311 308 306 305 303 301 299 298 297 294 291 288 285 283 281 281 281 280 278 277 276 277 277 277 276 274 273 270 270 268 255 250 254 254 257 264 267 269 270 270 269 272 278 283 287
198 194 198 203 199 194 187 185 186 183 184 187 188 189 185 179 174 168 158 132 40 346 335 335 333 332 331 328 327 325 323 321 319 318 318 318 316 315 314 314 313 310 308 307 306 304 301 299 296 294 292 290 287 284 282 280 280 279 278 277 275 275 273 275 278 277 275 271 269 269 260 250 248 249 253 261 265 266 268 269 266 268 272 276 279
197 193 194 199 197 194 188 186 185 181 186 195 194 188 180 174 172 169 156 100 332 319 319 327 329 328 327 325 325 324 322 321 320 319 319 317 315 312 310 310 310 309 308 306 305 304 302 299 296 293 291 289 287 285 283 280 279 279 278 276 273 272 272 274 277 276 275 275 269 266 263 257 252 252 254 257 260 263 267 269 264 263 267 270 271
196 193 194 198 200 201 194 189 186 183 190 196 192 183 175 172 174 178 195 275 296 304 312 320 325 325 325 324 323 321 320 318 317 316 314 312 309 306 305 305 305 305 305 305 304 303 301 298 295 292 289 287 286 285 284 282 280 278 276 274 272 271 272 272 273 273 275 278 273 265 261 259 256 255 254 253 255 259 263 265 261 259 262 264 263
197 196 199 203 206 207 200 193 188 189 196 196 189 180 176 178 186 207 241 271 287 297 308 316 322 324 322 321 319 318 317 314 313 312 310 307 305 304 305 306 306 306 306 306 305 304 302 299 294 291 288 285 284 283 282 282 281 280 277 274 274 272 271 272 273 275 276 276 274 270 264 259 255 254 252 251 253 255 258 261 257 255 257 258 256
197 199 201 205 208 205 198 195 195 197 201 196 187 183 183 193 210 230 250 268 286 296 306 314 318 319 317 317 317 315 314 312 310 309 307 306 305 306 308 309 309 309 308 307 306 304 302 299 295 292 288 286 284 282 280 279 280 280 278 277 276 275 274 276 277 275 274 273 273 274 271 264 258 253 249 248 251 252 254 255 252 249 251 252 252
194 198 200 204 205 199 193 195 201 206 203 193 188 192 199 209 224 238 257 277 292 300 306 311 313 315 316 318 317 315 312 310 309 308 307 307 307 308 308 309 309 308 307 306 306 304 302 299 295 292 289 286 283 280 277 277 277 276 276 277 276 276 277 277 276 272 271 272 273 273 271 269 265 256 248 245 245 246 247 249 247 245 245 247 249
193 196 197 200 201 197 193 195 205 210 201 193 194 202 211 219 233 252 279 294 298 301 305 308 313 317 319 318 314 311 310 309 309 308 307 308 308 308 307 307 306 306 307 307 306 304 301 298 295 292 289 287 284 280 275 273 273 273 272 273 274 275 276 276 275 274 273 272 272 274 273 272 271 261 248 241 239 241 244 245 243 242 242 245 247
195 197 197 201 199 193 196 201 207 208 198 196 202 210 218 227 245 274 291 296 296 300 307 312 315 318 317 314 310 307 307 307 307 307 306 307 307 307 306 307 309 310 310 309 307 304 302 300 297 294 292 290 287 283 278 271 269 269 269 269 270 272 273 272 273 275 275 273 273 274 273 271 272 265 250 238 235 238 242 242 241 240 240 243 245
194 199 201 202 197 195 203 206 205 205 200 202 210 215 223 234 255 277 286 292 297 303 310 314 316 317 313 310 308 306 306 306 305 304 305 307 308 309 310 312 314 314 313 312 310 308 306 303 299 297 295 292 290 286 282 276 268 267 269 270 269 270 270 268 269 272 274 275 273 273 273 271 271 266 251 237 232 235 240 242 241 241 240 241 244
191 199 202 201 199 204 210 204 200 204 205 210 217 221 228 241 258 275 286 294 301 306 310 311 313 313 310 309 309 308 307 307 306 306 308 311 313 315 316 318 318 318 318 319 317 314 311 307 302 298 296 294 292 289 286 281 273 267 267 269 269 269 270 268 268 270 272 274 274 275 274 271 271 265 247 237 234 233 237 239 239 240 239 240 241
192 197 202 202 202 207 211 204 201 207 211 216 223 227 234 249 266 281 291 298 302 305 306 308 310 310 310 311 311 312 313 312 312 313 316 318 320 321 321 321 323 325 326 326 324 320 315 310 306 301 300 299 297 294 289 284 277 268 264 267 270 273 274 273 270 269 269 271 272 275 274 269 271 265 244 235 235 234 236 239 240 241 239 238 239
194 196 201 203 202 203 208 208 208 212 216 221 226 232 242 256 274 287 294 299 301 302 303 307 310 311 313 314 314 316 317 316 317 320 322 324 324 324 325 327 329 331 332 331 328 324 318 314 311 308 308 309 308 303 295 288 279 268 261 264 271 277 281 280 275 270 266 267 271 274 273 268 268 262 244 235 235 234 236 237 239 240 237 236 238